This demonstration page uses our WeatherBlox Daily Observations layout. Learn more.

Left ArrowRight Arrow

39.92423, -83.80882

Hourly Observations for January 29, 2015

Temp ( °F °C ) Dew Point ( °F °C ) Humidity (%) Winds ( mph kmh ) Pressure ( in mb ) Visibility ( mi km ) Precip ( " mm )
12:56 am 00:56 Clear 27 -2.7 20 -6.6 75 75 SSE 13 20 30.16 1021 9 14 0.00 0.00
1:56 am 01:56 Clear 27 -2.7 20 -6.6 75 75 SSE 12 19 30.12 1020 10 16 0.00 0.00
2:56 am 02:56 Clear 28 -2.2 21 -6.1 75 75 SSE 10 17 30.09 1019 10 16 0.00 0.00
3:56 am 03:56 Clear 29 -1.6 21 -6.1 72 72 SE 13 20 30.04 1017 10 16 0.00 0.00
4:56 am 04:56 Clear 30 -1.1 22 -5.5 72 72 SSE 12 19 29.99 1016 10 16 0.00 0.00
5:56 am 05:56 Cloudy with Light Rain 33 0.5 25 -3.8 73 73 SSE 13 20 29.97 1015 4 6 0.00 0.03
6:14 am 06:14 Cloudy with Light Freezing Rain 34 1 27 -3 75 75 SSE 10 17 29.97 1015 3 5 0.01 0.25
6:56 am 06:56 Mostly Cloudy with Light Freezing Rain 34 1.1 29 -1.6 82 82 S 10 17 29.91 1013 5 8 0.03 0.76
7:45 am 07:45 Cloudy 36 2 30 -1 81 81 S 13 20 29.88 1012 9 14 0.00 0.03
7:56 am 07:56 Cloudy 35 1.6 30 -1.1 82 82 S 12 19 29.89 1012 9 14 0.00 0.03
8:56 am 08:56 Mostly Cloudy with Light Rain 36 2.2 31 -0.5 83 83 SSW 15 24 29.88 1012 6 10 0.00 0.03
9:56 am 09:56 Cloudy 37 2.7 32 0 83 83 S 16 26 29.86 1011 9 14 0.00 0.03
10:56 am 10:56 Sunny 40 4.4 33 0.5 76 76 SSW 16 26 29.85 1011 9 14 0.00 0.00
11:56 am 11:56 Cloudy 42 5.5 34 1.1 74 74 SSW 13 20 29.83 1010 9 14 0.00 0.00
12:56 pm 12:56 Cloudy 42 5.5 36 2.2 80 80 SW 13 20 29.81 1009 9 14 0.00 0.00
1:56 pm 13:56 Cloudy 43 6.1 37 2.7 79 79 WSW 23 37 29.80 1009 8 13 0.00 0.00
2:28 pm 14:28 Cloudy with Light Rain 39 4 36 2 87 87 W 32 52 29.83 1010 2 3 0.00 0.03
2:35 pm 14:35 Cloudy with Light Rain 37 3 36 2 93 93 W 25 41 29.85 1011 3 4 0.00 0.03
2:56 pm 14:56 Cloudy with Mist and Fog 37 2.7 35 1.6 93 93 W 25 41 29.86 1011 3 4 0.00 0.03
3:07 pm 15:07 Cloudy with Mist and Fog 37 3 36 2 93 93 W 22 35 29.85 1011 3 5 0.00 0.00
3:56 pm 15:56 Cloudy with Mist and Fog 36 2.2 33 0.5 89 89 W 14 22 29.91 1013 5 8 0.00 0.00
4:30 pm 16:30 Cloudy with Mist and Fog 36 2 34 1 93 93 W 22 35 29.97 1015 2 3 0.00 0.00
4:42 pm 16:42 Cloudy with Mist and Fog 36 2 34 1 93 93 W 25 41 29.97 1015 3 5 0.00 0.00
4:56 pm 16:56 Cloudy with Mist and Fog 34 1.1 32 0 92 92 W 22 35 29.95 1014 4 6 0.00 0.00
5:56 pm 17:56 Cloudy 34 1.1 31 -0.5 89 89 W 22 35 30.00 1016 7 11 0.00 0.00
6:25 pm 18:25 Cloudy with Mist and Fog 34 1 30 -1 87 87 W 20 31 30.06 1018 3 5 0.00 0.00
6:38 pm 18:38 Cloudy with Mist and Fog 34 1 30 -1 87 87 W 16 26 30.06 1018 3 4 0.00 0.00
6:56 pm 18:56 Cloudy with Mist and Fog 33 0.5 31 -0.5 93 93 W 18 30 30.05 1018 4 6 0.00 0.00
7:28 pm 19:28 Cloudy with Mist and Fog 32 0 30 -1 93 93 W 18 30 30.09 1019 2 3 0.00 0.00
7:56 pm 19:56 Cloudy with Mist and Fog 32 0 31 -0.5 96 96 W 14 22 30.08 1019 3 4 0.00 0.00
8:27 pm 20:27 Cloudy with Light Freezing Rain 32 0 30 -1 93 93 W 13 20 30.12 1020 2 3 0.00 0.03
8:35 pm 20:35 Cloudy with Light Freezing Rain 32 0 30 -1 93 93 W 14 22 30.12 1020 2 3 0.00 0.03
8:39 pm 20:39 Cloudy with Light Snow 32 0 32 0 100 100 W 13 20 30.12 1020 2 3 0.00 0.03
8:56 pm 20:56 Cloudy with Light Snow 32 0 31 -0.5 96 96 W 14 22 30.10 1019 3 4 0.00 0.03
9:24 pm 21:24 Cloudy with Light Snow 32 0 30 -1 93 93 WNW 15 24 30.15 1021 3 5 0.00 0.03
9:44 pm 21:44 Cloudy with Light Snow 32 0 30 -1 93 93 WNW 16 26 30.15 1021 5 8 0.00 0.03
9:56 pm 21:56 Cloudy 32 0 30 -1.1 92 92 WNW 13 20 30.13 1020 7 11 0.00 0.03
10:56 pm 22:56 Cloudy 32 0 29 -1.6 89 89 WNW 12 19 30.15 1021 8 13 0.00 0.00
11:35 pm 23:35 Cloudy with Light Wintry Mix 32 0 28 -2 87 87 WSW 9 15 30.18 1022 5 8 0.00 0.03
11:42 pm 23:42 Cloudy with Light Wintry Mix 32 0 30 -1 93 93 W 9 15 30.21 1023 5 8 0.00 0.03
11:56 pm 23:56 Cloudy with Light Wintry Mix 32 0 30 -1.1 92 92 W 10 17 30.16 1021 6 10 0.00 0.03

Powered by AerisWeather